Location: Wapato
(46.4478°N, 120.4212°W)
Time: 14:32:57
(UTC+00:00)

Explorer 7 - Pass Details

Date: 13 May 2026
Orbit: 426 x 534 km, 50.2° (Epoch: 8 June)

Event Time Altitude Azimuth Distance (km) Brightness Sun altitude
Rises 16:50:02 0° 282° (WNW) 2,527 9.8 42.5°
Reaches altitude 10° 16:52:14 10° 289° (WNW) 1,668 8.9 42.9°
Maximum altitude 16:55:54 47° 4° (N) 672 7.6 43.4°
Drops below altitude 10° 16:59:42 10° 79° (E) 1,731 10.2 44.1°
Sets 17:02:00 0° 85° (E) 2,634 10.9 44.4°
